Support us
Login | Signup

Popular TAGs: 2016 2015 2014 2013 720p 1080p m1080p XviD x264 x265 3D DVDrip BDrip MKV 320kbps

Show only:                                            

Sort by: Date | Name | Seeders | Leechers | Comments

03-11-2016 Torrent The Police 1983 Synchronicity 101.88 MB 0 0
03-11-2016 Torrent Cutting Crew 2005 Grinning Souls 125.6 MB 0 4
03-11-2016 Torrent Mark Slaughter 2015 Reflections In A Rear View Mirror 111.4 MB 0 0
03-11-2016 Torrent Amanda Fish Band 2015 Down In The Dirt 129.15 MB 0 2
03-11-2016 Torrent Large Professor 2015 Reliving 75.45 MB 0 0
03-11-2016 Torrent Dice 2015 Son.Sister.Sun 137.65 MB 0 1
03-11-2016 Torrent Robin Gregory 2015 Something To Live For 95.58 MB 0 3
03-11-2016 Torrent Carina Round 2015 Tigermixes 139.87 MB 0 0
03-11-2016 Torrent Chappo 2015 Future Former Self 99.8 MB 0 0
03-11-2016 Torrent Delta Deep 2015 Delta Deep 102.55 MB 0 0
03-11-2016 Torrent A Light Divided 2015 Mirrors 99.28 MB 0 0
03-11-2016 Torrent LR & Puce Mary 2015 The Female Form 84.98 MB 0 0
03-11-2016 Torrent Celine Dion 2013 Loved Me Back To Life 139.85 MB 0 1
03-11-2016 Torrent Richard Marx 1991 Rush Street 150.62 MB 0 0
03-11-2016 Torrent Ao Logics 2015 Hell Is Empty 99.8 MB 0 0
03-11-2016 Torrent Barry Levenson 2015 The Visit 137.88 MB 0 0
03-11-2016 Torrent Tony Rondini 2015 No Use For The Blues 119.9 MB 0 0
03-11-2016 Torrent Sirenia 2015 The Seventh Life Path 178.79 MB 0 0
03-11-2016 Torrent Rico Richie 2015 Realest Story Ever Told 116.35 MB 0 0
03-11-2016 Torrent All The Cold 2015 Manvantara 126.34 MB 0 2
03-11-2016 Torrent The Cars 2011 Move Like This 97.38 MB 0 0
03-11-2016 Torrent Reform The Resistance 2015 DOS 126.87 MB 0 1
03-11-2016 Torrent Rumer 2012 Boys Don't Cry 127.15 MB 0 0
03-11-2016 Torrent Victor Wainwright & The Wildroots 2015 Boom Town 101.36 MB 0 0
03-11-2016 Torrent Littlewolf 2012 Littlewolf 87.44 MB 0 1
03-11-2016 Torrent Cortex Complex 2015 The Final Great Awakening 78.28 MB 0 2
04-11-2016 Torrent Thomas Christ 2015 Apille 122.95 MB 0 0
04-11-2016 Torrent Heather Nova 2015 The Way It Feels 135.32 MB 0 0
04-11-2016 Torrent Sanni 2015 Lelu 91.14 MB 0 0
04-11-2016 Torrent Kinetic Element 2015 Travelog 160.65 MB 0 1
04-11-2016 Torrent Taylor's Code 2015 Mirrors 135.08 MB 0 1
04-11-2016 Torrent Worldview 2015 The Chosen Few 118.26 MB 0 0
04-11-2016 Torrent Max Guld 2015 For Enden Af Corridoren 90.75 MB 0 0
04-11-2016 Torrent Stormhold 2015 Battle Of The Royal Halls 127.2 MB 0 0
04-11-2016 Torrent Decades/Failures 2015 Goodby3 86.35 MB 0 2
 «  1 2 3 4 5 ... 25 26 27 28 29 30 31 32 33 ... 137 138 139 140 141  »
  Movie/Films     Animation/Cartoons     TV Shows/Series     Music     Games     Applications     Books     Other  

   How works MfT    Rules    Suggest idea    Request torrent    Privacy Policy    DMCA    Contacts    MfT Status    Friends sites    Is this site safe?   

mkv, HD-Rip , BD-Rip , Blu-Ray , HD Film , hd film , hd films , scarica film gratis , hd torrents , hd torrent , hdtorrents, hdrip , bdrip , Bluray ,

Blu-Ray player, scarica film , scarica torrent , torrent film , film ita, bluray, mux, 1080p, 720p, hdtorrents, torrent ita, torrents ita, HD film ita, HD ita, Blu-Ray ita